BEIDOU-3 G2

Last updated on Mon Sep 07 2026 00:03:01 GMT+0000 (Coordinated Universal Time)

1 45344U 20017A 26249.60768172 -.00000155 00000+0 00000+0 0 9990 2 45344 2.5679 48.2780 0002214 125.3998 110.8239 1.00270461 24074
UTC large
Height (km)
Speed (km/s)
/
Latitude / Longitude
Inclination (degrees)
Orbital Period (minutes)
Azimuth
Elevation
Range (km)
Doppler Factor

Next 0 passes for location: London (51.5072 / 0.1276)

No passes found over London.
BEIDOU-3 G2